When you browse on this site, cookies collect data to enhance your experience and personalize the content and advertising you see.
Visit our Privacy Policy to learn more. By continuing to use the site, you agree to this use of cookies and data.

Hourly Weather Pruszków

Today, 2 July, Thursday

Time Temperature Precipitation Wind Pressure Humidity
00:00 +20°C° 1 mm 2 mps 748 mmHg 88%
01:00 +19°C° 0 mm 2 mps 747 mmHg 90%
02:00 +19°C° 0.1 mm 2 mps 747 mmHg 91%
03:00 +19°C° 0.1 mm 3 mps 747 mmHg 91%
04:00 +19°C° 0.1 mm 3 mps 747 mmHg 92%
05:00 +20°C° 0 mm 3 mps 747 mmHg 89%
06:00 +22°C° 0 mm 4 mps 747 mmHg 85%
07:00 +23°C° 0 mm 4 mps 748 mmHg 82%
08:00 +25°C° 0.8 mm 4 mps 748 mmHg 78%
09:00 +26°C° 0.8 mm 5 mps 748 mmHg 74%
10:00 +27°C° 0.8 mm 5 mps 748 mmHg 70%
11:00 +27°C° 0.3 mm 5 mps 748 mmHg 67%
12:00 +28°C° 0.3 mm 5 mps 749 mmHg 63%
13:00 +28°C° 0.3 mm 5 mps 749 mmHg 59%
14:00 +28°C° 0 mm 4 mps 749 mmHg 60%
15:00 +27°C° 0 mm 4 mps 749 mmHg 60%
16:00 +27°C° 0 mm 4 mps 748 mmHg 60%
17:00 +26°C° 0 mm 3 mps 749 mmHg 65%
18:00 +25°C° 0 mm 2 mps 749 mmHg 70%
19:00 +24°C° 0 mm 1 mps 749 mmHg 74%
20:00 +23°C° 0 mm 1 mps 749 mmHg 75%
21:00 +22°C° 0 mm 1 mps 749 mmHg 76%
22:00 +21°C° 0 mm 1 mps 749 mmHg 76%
23:00 +21°C° 0 mm 1 mps 749 mmHg 76%

Tomorrow, 3 July, Friday

Time Temperature Precipitation Wind Pressure Humidity
00:00 +21°C° 0 mm 1 mps 749 mmHg 77%
01:00 +21°C° 0 mm 1 mps 749 mmHg 77%
02:00 +20°C° 0 mm 1 mps 749 mmHg 77%
03:00 +20°C° 0 mm 1 mps 749 mmHg 77%
04:00 +20°C° 0 mm 1 mps 748 mmHg 78%
05:00 +21°C° 0.2 mm 1 mps 749 mmHg 79%
06:00 +21°C° 0.2 mm 1 mps 749 mmHg 80%
07:00 +21°C° 0.2 mm 1 mps 749 mmHg 82%
08:00 +22°C° 1 mm 1 mps 749 mmHg 81%
09:00 +22°C° 1 mm 1 mps 749 mmHg 81%
10:00 +23°C° 1 mm 1 mps 750 mmHg 81%
11:00 +23°C° 0.7 mm 2 mps 750 mmHg 79%
12:00 +24°C° 0.7 mm 2 mps 750 mmHg 77%
13:00 +24°C° 0.7 mm 3 mps 750 mmHg 75%
14:00 +24°C° 0.1 mm 3 mps 750 mmHg 73%
15:00 +23°C° 0.1 mm 4 mps 750 mmHg 72%
16:00 +23°C° 0.1 mm 5 mps 750 mmHg 71%
17:00 +23°C° 0 mm 4 mps 750 mmHg 72%
18:00 +22°C° 0 mm 4 mps 751 mmHg 74%
19:00 +21°C° 0 mm 3 mps 751 mmHg 76%
20:00 +20°C° 0 mm 3 mps 752 mmHg 78%
21:00 +19°C° 0 mm 3 mps 752 mmHg 79%
22:00 +18°C° 0 mm 3 mps 753 mmHg 81%
23:00 +17°C° 0 mm 2 mps 753 mmHg 84%

Day after tomorrow, 4 July, Saturday

Time Temperature Precipitation Wind Pressure Humidity
00:00 +16°C° 0 mm 2 mps 753 mmHg 87%
01:00 +16°C° 0 mm 2 mps 753 mmHg 90%
02:00 +16°C° 0 mm 2 mps 753 mmHg 91%
03:00 +15°C° 0 mm 2 mps 753 mmHg 92%
04:00 +15°C° 0 mm 2 mps 754 mmHg 93%
05:00 +17°C° 0 mm 2 mps 754 mmHg 87%
06:00 +19°C° 0 mm 1 mps 754 mmHg 81%
07:00 +21°C° 0 mm 1 mps 754 mmHg 74%
08:00 +21°C° 0 mm 2 mps 754 mmHg 68%
09:00 +23°C° 0 mm 2 mps 754 mmHg 62%
10:00 +25°C° 0 mm 2 mps 754 mmHg 56%
11:00 +25°C° 0 mm 2 mps 754 mmHg 55%
12:00 +26°C° 0 mm 3 mps 754 mmHg 53%
13:00 +26°C° 0 mm 3 mps 754 mmHg 52%
14:00 +26°C° 0 mm 3 mps 754 mmHg 52%
15:00 +26°C° 0 mm 3 mps 753 mmHg 53%
16:00 +26°C° 0 mm 3 mps 753 mmHg 54%
17:00 +25°C° 0 mm 2 mps 753 mmHg 59%
18:00 +24°C° 0 mm 2 mps 753 mmHg 65%
19:00 +23°C° 0 mm 2 mps 753 mmHg 70%
20:00 +23°C° 0.1 mm 2 mps 753 mmHg 72%
21:00 +21°C° 0.1 mm 2 mps 754 mmHg 74%
22:00 +20°C° 0.1 mm 2 mps 754 mmHg 76%
23:00 +19°C° 0 mm 2 mps 754 mmHg 78%

5 July, Sunday

Time Temperature Precipitation Wind Pressure Humidity
00:00 +19°C° 0 mm 2 mps 753 mmHg 80%
01:00 +18°C° 0 mm 2 mps 753 mmHg 82%
02:00 +18°C° 0 mm 2 mps 753 mmHg 83%
03:00 +18°C° 0 mm 3 mps 753 mmHg 84%
04:00 +17°C° 0 mm 3 mps 753 mmHg 85%
05:00 +19°C° 0 mm 3 mps 753 mmHg 81%
06:00 +20°C° 0 mm 3 mps 753 mmHg 77%
07:00 +21°C° 0 mm 4 mps 753 mmHg 73%
08:00 +23°C° 0 mm 4 mps 753 mmHg 68%
09:00 +25°C° 0 mm 4 mps 753 mmHg 63%
10:00 +26°C° 0 mm 4 mps 753 mmHg 59%
11:00 +26°C° 0.2 mm 5 mps 752 mmHg 60%
12:00 +26°C° 0.2 mm 5 mps 752 mmHg 61%
13:00 +27°C° 0.2 mm 5 mps 752 mmHg 62%
14:00 +27°C° 0.1 mm 5 mps 751 mmHg 63%
15:00 +27°C° 0.1 mm 4 mps 751 mmHg 64%
16:00 +27°C° 0.1 mm 4 mps 751 mmHg 65%
17:00 +26°C° 0.1 mm 4 mps 751 mmHg 69%
18:00 +25°C° 0.1 mm 3 mps 750 mmHg 72%
19:00 +25°C° 0.1 mm 3 mps 750 mmHg 76%
20:00 +24°C° 0.2 mm 3 mps 750 mmHg 79%
21:00 +22°C° 0.2 mm 3 mps 750 mmHg 82%
22:00 +21°C° 0.2 mm 3 mps 750 mmHg 85%
23:00 +20°C° 0 mm 3 mps 750 mmHg 86%

6 July, Monday

Time Temperature Precipitation Wind Pressure Humidity
00:00 +20°C° 0 mm 3 mps 750 mmHg 87%
01:00 +20°C° 0 mm 3 mps 750 mmHg 88%
02:00 +19°C° 0 mm 3 mps 750 mmHg 88%
03:00 +19°C° 0 mm 4 mps 750 mmHg 88%
04:00 +19°C° 0 mm 4 mps 750 mmHg 88%
05:00 +20°C° 0 mm 4 mps 750 mmHg 85%
06:00 +21°C° 0 mm 5 mps 750 mmHg 82%
07:00 +22°C° 0 mm 5 mps 750 mmHg 80%
08:00 +23°C° 0 mm 5 mps 750 mmHg 76%
09:00 +25°C° 0 mm 5 mps 750 mmHg 71%
10:00 +26°C° 0 mm 5 mps 750 mmHg 67%
11:00 +26°C° 0.2 mm 5 mps 750 mmHg 67%
12:00 +26°C° 0.2 mm 5 mps 749 mmHg 67%
13:00 +27°C° 0.2 mm 5 mps 749 mmHg 67%
14:00 +27°C° 0.1 mm 5 mps 749 mmHg 67%
15:00 +27°C° 0.1 mm 5 mps 748 mmHg 66%
16:00 +27°C° 0.1 mm 5 mps 748 mmHg 66%
17:00 +26°C° 0 mm 4 mps 748 mmHg 69%
18:00 +25°C° 0 mm 3 mps 748 mmHg 72%
19:00 +24°C° 0 mm 3 mps 748 mmHg 75%
20:00 +24°C° 0 mm 3 mps 749 mmHg 75%
21:00 +22°C° 0 mm 3 mps 749 mmHg 75%
22:00 +22°C° 0 mm 3 mps 749 mmHg 75%
23:00 +21°C° 0.1 mm 3 mps 750 mmHg 76%

7 July, Tuesday

Time Temperature Precipitation Wind Pressure Humidity
00:00 +20°C° 0.1 mm 4 mps 750 mmHg 76%
01:00 +19°C° 0.1 mm 4 mps 750 mmHg 76%
02:00 +18°C° 0 mm 3 mps 751 mmHg 77%
03:00 +17°C° 0 mm 3 mps 751 mmHg 78%
04:00 +17°C° 0 mm 3 mps 751 mmHg 78%
05:00 +17°C° 0 mm 3 mps 752 mmHg 75%
06:00 +18°C° 0 mm 3 mps 752 mmHg 71%
07:00 +18°C° 0 mm 4 mps 752 mmHg 68%
08:00 +19°C° 0 mm 4 mps 753 mmHg 63%
09:00 +20°C° 0 mm 4 mps 753 mmHg 59%
10:00 +21°C° 0 mm 4 mps 753 mmHg 55%
11:00 +21°C° 0 mm 5 mps 753 mmHg 54%
12:00 +21°C° 0 mm 5 mps 753 mmHg 52%
13:00 +22°C° 0 mm 5 mps 752 mmHg 51%
14:00 +22°C° 0 mm 4 mps 752 mmHg 53%
15:00 +21°C° 0 mm 4 mps 753 mmHg 55%
16:00 +21°C° 0 mm 4 mps 753 mmHg 57%
17:00 +20°C° 0 mm 3 mps 753 mmHg 61%
18:00 +19°C° 0 mm 3 mps 753 mmHg 65%
19:00 +19°C° 0 mm 2 mps 753 mmHg 69%
20:00 +18°C° 0 mm 2 mps 754 mmHg 71%
21:00 +17°C° 0 mm 2 mps 754 mmHg 73%
22:00 +16°C° 0 mm 2 mps 754 mmHg 75%
23:00 +16°C° 0 mm 2 mps 754 mmHg 77%
Show more